Flag for U.S.A. Weather past 2 weeks in Virginia Beach, Virginia, U.S.A.

Now
77 °F

Passing clouds.


Feels Like: 78 °F
Forecast: 73 / 92 °F
Wind: 6 mph from Southeast

Location: Virginia Beach - Oceana

Current Time: Jun 30, 2015 at 6:21:44 AM

Latest Report: Jun 30, 2015 at 5:56 AM


Visibility: 10 mi

Pressure: 29.95 "Hg

Humidity: 85%

Dew point: 72 °F

Location of Virginia BeachLocation

Historic Weather in Virginia Beach — Graph

°F

Virginia Beach temperature yesterday

Maximum temperature yesterday: 85 °F (at 3:56 PM)
Minimum temperature yesterday: 65 °F (at 4:56 AM)
Average temperature yesterday: 76 °F

Past Weeks' High & Low Weather Summary

 TemperatureHumidityPressure
High100 °F (Jun 16, 2:56 PM)88% (Jun 18, 5:56 AM)30.11 "Hg (Jun 18, 5:56 AM)
Low65 °F (Jun 29, 4:56 AM)35% (Jun 16, 1:56 PM)29.69 "Hg (Jun 28, 2:56 AM)
Average83 °F66%29.96 "Hg
* Reported Jun 15 4:56 AM — Jun 30 4:56 AM, Virginia Beach, Weather by CustomWeather, © 2015

Note: Actual official high and low records may vary slightly from our data, if they occured in-between our weather recording intervals... More about our weather records

Advertising

Virginia Beach weather history for previous 24 hours

 ConditionsComfort  
Time TempWeatherWind HumidityBarometerVisibility
4:56 AM
Tue, Jun 30
76 °FPassing clouds.3 mph85%29.94 "Hg10 mi
3:56 AM76 °FPassing clouds.5 mph82%29.93 "Hg10 mi
2:56 AM76 °FPassing clouds.7 mph82%29.93 "Hg10 mi
1:56 AM76 °FPassing clouds.6 mph82%29.95 "Hg10 mi
12:56 AM76 °FPassing clouds.7 mph80%29.97 "Hg10 mi
11:56 PM
Mon, Jun 29
76 °FPassing clouds.8 mph80%29.97 "Hg10 mi
10:56 PM76 °FPassing clouds.7 mph77%29.98 "Hg10 mi
9:56 PM76 °FPassing clouds.7 mph72%29.98 "Hg10 mi
8:56 PM78 °FPassing clouds.8 mph64%29.96 "Hg10 mi
7:56 PM78 °FScattered clouds.6 mph62%29.96 "Hg10 mi
6:56 PM80 °FPassing clouds.9 mph58%29.95 "Hg10 mi
5:56 PM82 °FScattered clouds.12 mph53%29.96 "Hg10 mi
4:56 PM83 °FScattered clouds.12 mph50%29.95 "Hg10 mi
3:56 PM85 °FScattered clouds.9 mph48%29.96 "Hg10 mi
2:56 PM84 °FScattered clouds.7 mph48%29.97 "Hg10 mi
1:56 PM83 °FScattered clouds.9 mph48%29.99 "Hg10 mi
12:56 PM82 °FScattered clouds.8 mph46%30.00 "Hg10 mi
11:56 AM83 °FScattered clouds.7 mph43%30.00 "Hg10 mi
10:56 AM82 °FScattered clouds.8 mph41%30.01 "Hg10 mi
9:56 AM80 °FScattered clouds.6 mph47%30.01 "Hg10 mi
8:56 AM79 °FScattered clouds.9 mph48%30.01 "Hg10 mi
7:56 AM76 °FScattered clouds.No wind69%29.99 "Hg10 mi
6:56 AM68 °FScattered clouds.No wind84%29.98 "Hg10 mi
Weather by CustomWeather, © 2015

See weather overviewHow to use our weather pages